Location: Csohesd
(46.2500°N, 22.6167°E)
Time: 06:04:26
(UTC+00:00)

Cosmos 1356 - Pass Details

Date: 21 October 2021
Orbit: 433 x 436 km, 81.1° (Epoch: 04 December)

Event Time Altitude Azimuth Distance (km) Brightness Sun altitude
Rises 15:58:38 0° 344° (NNW) 2,438 7.2 -5.2°
Reaches altitude 10° 16:00:44 10° 340° (NNW) 1,564 6.3 -5.6°
Maximum altitude 16:04:03 52° 263° (W) 552 4.4 -6.2°
Drops below altitude 10° 16:07:22 10° 186° (S) 1,551 6.3 -6.7°
Sets 16:09:26 0° 181° (S) 2,415 7.2 -7.1°
